Location: Dillon
(41.1766°N, 107.0923°W)
Time: 16:27:36
(UTC+00:00)

SO-50 - Pass Details

Date: 05 July 2022
Orbit: 585 x 698 km, 64.6° (Epoch: 08 August)

Event Time Altitude Azimuth Distance (km) Brightness Sun altitude
Exits shadow 05:10:18 15° 83° (E) 1,754 ? -20.0°
Drops below altitude 10° 05:11:48 10° 67° (ENE) 2,096 ? -20.1°
Sets 05:14:46 0° 49° (NE) 3,035 ? -20.4°
